[[{"header":{"parameterUnit":"m.s-1","parameterCategory":1,"la1":30.2991,"la2":30.254,"lo1":-89.0895,"lo2":-89.0444,"dy":0.0017,"dx":0.0017,"nx":28,"ny":28,"refTime":"2024-04-29T21:00:00:Z","depth":0,"parameterNumber":2,"parameterNumberName":"U-component_of_WINDS"},"data":[0,0,0,0,0,0,0,0,0,0,0,0,0,0,0,0,0,0,0,0,0,0,0,0,0,0,0,0,0,0,0,0,0,0,0,0,0,0,0,0,0,0,0,0,0,0,0,0,0,0,0,0,0,0,0,0,0,0,-2.5175,-2.5175,0,-2.5125,-2.5125,-2.5124,-2.5047,-2.5046,-2.5044,-2.5043,-2.4992,-2.4991,-2.4991,0,0,0,0,0,0,0,0,0,0,0,0,0,-2.5204,-2.5203,-2.5175,-2.5175,-2.5174,-2.5125,-2.5125,-2.5124,-2.5047,-2.5046,-2.5044,-2.5042,-2.4992,-2.4991,-2.4991,0,0,0,0,0,0,0,0,0,0,0,0,0,-2.5176,-2.5203,-2.5175,-2.513,-2.5125,-2.5126,-2.5125,-2.5124,-2.5048,-2.5046,-2.5043,-2.5042,-2.4992,-2.4992,-2.4991,-2.5032,0,0,-2.4991,-2.4991,0,0,0,0,0,0,0,0,-2.5178,-2.5175,-2.5137,-2.5133,-2.5128,-2.509,-2.5116,-2.5093,-2.5048,-2.5077,-2.5043,-2.5041,-2.5026,-2.5023,-2.5018,-2.503,-2.5028,-2.4991,-2.4991,-2.4991,-2.4991,0,0,0,0,0,0,0,-2.518,-2.5177,-2.5155,-2.5137,-2.5131,-2.5112,-2.5106,-2.5111,-2.5064,-2.5074,-2.5069,-2.5064,-2.5023,-2.5019,-2.5016,-2.5027,-2.4991,-2.4991,-2.4991,-2.4991,-2.5069,-2.5071,0,0,0,0,0,0,-2.5189,-2.5179,-2.5157,-2.5154,-2.5148,-2.5113,-2.5106,-2.5104,-2.5064,-2.5055,-2.5066,-2.506,-2.502,-2.5017,-2.5014,-2.5059,-2.4991,-2.4991,-2.4991,-2.5067,-2.507,-2.5072,0,0,0,0,0,0,-2.519,-2.5187,-2.5159,-2.5165,-2.516,-2.5115,-2.5113,-2.5105,-2.51,-2.5057,-2.5048,-2.507,-2.5018,-2.5014,-2.5028,-2.5056,-2.4991,-2.4991,-2.5064,-2.5068,-2.5071,-2.5149,0,0,0,0,0,0,-2.5191,-2.5188,-2.5203,-2.5166,-2.516,-2.5174,-2.5115,-2.5105,-2.51,-2.5093,-2.5058,-2.5051,-2.5016,-2.5029,-2.5028,-2.5055,-2.4991,-2.5062,-2.5066,-2.507,-2.5144,-2.5155,-2.5164,0,0,0,0,0,-2.5192,-2.5227,-2.5204,-2.5202,-2.5178,-2.5176,-2.5172,-2.5132,-2.5102,-2.5117,-2.509,-2.5052,-2.5054,-2.5031,-2.503,-2.5057,-2.506,-2.5065,-2.5069,-2.5139,-2.5153,-2.5164,0,0,0,0,0,0,-2.5268,-2.5221,-2.5196,-2.522,-2.5203,-2.5163,-2.518,-2.5147,-2.5138,-2.5131,-2.5082,-2.5075,-2.5095,-2.5077,-2.5053,-2.5094,-2.5051,-2.5056,-2.5105,-2.5117,-2.5127,-2.513,-2.499,0,0,0,0,0,-2.5288,-2.5291,-2.5249,-2.5275,-2.5267,-2.5226,-2.5223,-2.5194,-2.5174,-2.5166,-2.5139,-2.5121,-2.5118,-2.5116,-2.5111,-2.5141,-2.5133,-2.5159,-2.5169,-2.5178,-2.5182,-2.5197,-2.5208,-2.5088,-2.5088,-2.5088,0,0,-2.5329,-2.5304,-2.5308,-2.529,-2.5273,-2.5276,-2.522,-2.5226,-2.5228,-2.5167,-2.5178,-2.5158,-2.5135,-2.5157,-2.5166,-2.5143,-2.5214,-2.5184,-2.5191,-2.5191,-2.5203,-2.5215,-2.5225,-2.5091,-2.5091,-2.509,0,0,-2.5405,-2.5386,-2.5405,-2.5389,-2.5365,-2.5337,-2.5342,-2.5307,-2.5292,-2.5302,-2.5256,-2.5258,-2.5253,-2.5238,-2.523,-2.5301,-2.5266,-2.5301,-2.5353,-2.5368,-2.5377,-2.5386,-2.5411,-2.542,-2.5306,-2.5306,-2.5306,0,-2.5458,-2.5462,-2.5419,-2.5428,-2.5421,-2.5366,-2.5385,-2.5372,-2.5347,-2.5343,-2.5319,-2.5311,-2.5291,-2.531,-2.5327,-2.5323,-2.5326,-2.5304,-2.538,-2.5387,-2.5394,-2.5418,-2.5427,-2.531,-2.531,-2.5309,-2.5309,0,-2.5529,-2.5532,-2.5551,-2.5528,-2.5523,-2.5537,-2.5496,-2.5497,-2.5468,-2.5443,-2.5455,-2.5429,-2.5418,-2.542,-2.5392,-2.5434,-2.5421,-2.5389,-2.5344,-2.5411,-2.5432,-2.544,-2.5317,-2.5315,-2.5314,-2.5313,0,0,-2.5651,-2.5604,-2.5612,-2.5601,-2.557,-2.5572,-2.5584,-2.5572,-2.5574,-2.5558,-2.5567,-2.5564,-2.5534,-2.5525,-2.5495,-2.5508,-2.5566,-2.5474,-2.5473,-2.5492,-2.5611,-2.5635,-2.5646,-2.5543,-2.5544,-2.5546,-2.5613,0,-2.572,-2.5737,-2.5699,-2.5725,-2.5728,-2.5676,-2.5686,-2.5669,-2.5646,-2.5644,-2.5619,-2.5618,-2.5578,-2.5573,-2.5584,-2.5557,-2.5589,-2.5551,-2.555,-2.555,-2.5556,-2.5657,-2.5682,-2.5747,-2.5621,-2.5622,-2.5623,0,-2.5802,-2.5791,-2.5819,-2.5786,-2.5786,-2.5796,-2.5782,-2.5782,-2.5761,-2.5743,-2.5734,-2.5699,-2.5708,-2.5666,-2.5678,-2.5653,-2.565,-2.5637,-2.5638,-2.5636,-2.559,-2.5657,-2.5766,-2.5776,-2.5636,-2.5635,-2.5634,0,-2.5888,-2.588,-2.5895,-2.5887,-2.585,-2.5859,-2.5844,-2.582,-2.5816,-2.5805,-2.5802,-2.5792,-2.5786,-2.5779,-2.5742,-2.5715,-2.5758,-2.5713,-2.5743,-2.5744,-2.5754,-2.5754,-2.5864,-2.5754,-2.5753,-2.5753,-2.5753,0,-2.5968,-2.5987,-2.5933,-2.5942,-2.5961,-2.5918,-2.5938,-2.5918,-2.5898,-2.5902,-2.5857,-2.5862,-2.5813,-2.5813,-2.5784,-2.5798,-2.5796,-2.5782,-2.5774,-2.5785,-2.5787,-2.5782,-2.5777,-2.5756,-2.5755,-2.5755,-2.5754,0,-2.6067,-2.6031,-2.6044,-2.6009,-2.6,-2.6016,-2.5985,-2.5992,-2.5967,-2.5973,-2.5972,-2.5932,-2.5929,-2.5892,-2.5881,-2.5861,-2.5887,-2.587,-2.5894,-2.5888,-2.592,-2.5918,-2.6031,-2.6043,-2.5926,-2.5927,-2.5928,0,-2.612,-2.6133,-2.6099,-2.6099,-2.6086,-2.6086,-2.6082,-2.6039,-2.6037,-2.6014,-2.6024,-2.6018,-2.601,-2.6009,-2.5978,-2.597,-2.5953,-2.5993,-2.5951,-2.5963,-2.5953,-2.5952,-2.5953,-2.6002,-2.6003,-2.6004,-2.6005,0,-2.6218,-2.62,-2.6196,-2.6186,-2.6182,-2.6172,-2.6159,-2.6161,-2.6115,-2.6114,-2.6111,-2.6105,-2.6095,-2.6089,-2.6075,-2.6059,-2.6025,-2.6019,-2.6025,-2.6037,-2.605,-2.6043,-2.5917,-2.6016,-2.6015,-2.6015,-2.6014,-2.6013,-2.6295,-2.6304,-2.6282,-2.6278,-2.6264,-2.6253,-2.6258,-2.6234,-2.6231,-2.6219,-2.6194,-2.6195,-2.6174,-2.6152,-2.6139,-2.6139,-2.6118,-2.6127,-2.613,-2.6133,-2.6139,-2.6051,-2.6136,-2.6136,-2.6135,-2.6135,-2.6135,0,-2.6391,-2.6374,-2.6371,-2.6355,-2.6352,-2.6321,-2.6305,-2.6305,-2.6306,-2.6289,-2.6283,-2.628,-2.6274,-2.6244,-2.6235,-2.6241,-2.6225,-2.624,-2.6239,-2.6235,-2.6158,-2.6153,-2.6253,-2.6253,-2.6253,-2.6253,-2.6253,-2.6253,-2.644,-2.6454,-2.6434,-2.644,-2.6423,-2.6424,-2.6417,-2.6407,-2.6393,-2.6392,-2.6387,-2.6368,-2.6345,-2.6335,-2.6328,-2.6319,-2.6318,-2.6338,-2.6324,-2.6252,-2.6241,-2.623,-2.6225,-2.6338,-2.6339,-2.6401,-2.6402,-2.6402]},{"header":{"parameterUnit":"m.s-1","parameterCategory":1,"la1":30.2991,"la2":30.254,"lo1":-89.0895,"lo2":-89.0444,"dy":0.0017,"dx":0.0017,"nx":28,"ny":28,"refTime":"2024-04-29T21:00:00:Z","depth":0,"parameterNumber":3,"parameterNumberName":"V-component_of_WINDS"},"data":[0,0,0,0,0,0,0,0,0,0,0,0,0,0,0,0,0,0,0,0,0,0,0,0,0,0,0,0,0,0,0,0,0,0,0,0,0,0,0,0,0,0,0,0,0,0,0,0,0,0,0,0,0,0,0,0,0,0,1.0648,1.0648,0,1.0652,1.0652,1.0652,1.0672,1.0672,1.0673,1.0673,1.0674,1.0673,1.0673,0,0,0,0,0,0,0,0,0,0,0,0,0,1.0658,1.0658,1.0648,1.0648,1.0648,1.0652,1.0652,1.0652,1.0672,1.0672,1.0673,1.0674,1.0674,1.0674,1.0673,0,0,0,0,0,0,0,0,0,0,0,0,0,1.0657,1.0657,1.0648,1.0659,1.066,1.0652,1.0652,1.0652,1.0672,1.0672,1.0673,1.0674,1.0674,1.0674,1.0673,1.0654,0,0,1.0671,1.0671,0,0,0,0,0,0,0,0,1.0657,1.0656,1.0657,1.0658,1.0659,1.0662,1.0655,1.0652,1.0672,1.0667,1.0673,1.0674,1.0669,1.0669,1.0668,1.0654,1.0654,1.0671,1.067,1.067,1.067,0,0,0,0,0,0,0,1.0657,1.0656,1.065,1.0657,1.0658,1.0663,1.0664,1.0655,1.0664,1.0668,1.0669,1.0669,1.067,1.0668,1.0668,1.0654,1.0671,1.067,1.067,1.067,1.0625,1.0625,0,0,0,0,0,0,1.0656,1.0656,1.0649,1.065,1.066,1.0662,1.0663,1.066,1.0664,1.0665,1.0669,1.067,1.0669,1.0669,1.0668,1.0647,1.067,1.0669,1.0669,1.0626,1.0625,1.0624,0,0,0,0,0,0,1.0656,1.0655,1.0649,1.0653,1.0653,1.0661,1.0658,1.066,1.0659,1.0665,1.0666,1.0666,1.067,1.0669,1.0658,1.0647,1.0669,1.0669,1.0627,1.0626,1.0625,1.0603,0,0,0,0,0,0,1.0656,1.0655,1.0648,1.0653,1.0653,1.0639,1.0658,1.066,1.0658,1.066,1.0662,1.0664,1.067,1.0659,1.0657,1.0646,1.0668,1.0628,1.0626,1.0625,1.0604,1.0601,1.0598,0,0,0,0,0,1.0656,1.0641,1.0647,1.0646,1.0644,1.0638,1.0638,1.0647,1.0657,1.065,1.0654,1.0664,1.0648,1.0657,1.0656,1.0644,1.0629,1.0627,1.0625,1.0606,1.0602,1.0598,0,0,0,0,0,0,1.0632,1.0641,1.0649,1.0635,1.0636,1.0642,1.0633,1.0642,1.064,1.0641,1.0652,1.0652,1.0639,1.0641,1.0651,1.0627,1.064,1.0638,1.0626,1.0622,1.0619,1.0618,1.0667,0,0,0,0,0,1.0626,1.0621,1.0629,1.0615,1.0616,1.0624,1.0622,1.0629,1.063,1.063,1.0634,1.0634,1.0629,1.0626,1.0622,1.0605,1.0606,1.0597,1.0594,1.0591,1.0589,1.058,1.0576,1.0619,1.0619,1.0619,0,0,1.0611,1.0616,1.0612,1.0611,1.0613,1.0607,1.0625,1.0617,1.0613,1.0629,1.0619,1.0621,1.0622,1.0608,1.0602,1.0609,1.0577,1.0589,1.0586,1.0586,1.0578,1.0574,1.0571,1.0617,1.0618,1.0618,0,0,1.0582,1.0585,1.0575,1.0577,1.058,1.0586,1.0583,1.0588,1.0591,1.0581,1.0593,1.0588,1.058,1.0581,1.058,1.0553,1.0561,1.0551,1.0534,1.0526,1.0522,1.0519,1.051,1.0506,1.0549,1.0549,1.0549,0,1.0564,1.0557,1.0568,1.0561,1.056,1.0576,1.0565,1.0566,1.0567,1.0566,1.0574,1.0565,1.0567,1.0553,1.0547,1.0546,1.0543,1.055,1.0522,1.0519,1.0517,1.0508,1.0504,1.0548,1.0548,1.0548,1.0548,0,1.0534,1.0529,1.052,1.0522,1.052,1.0511,1.0521,1.0518,1.0526,1.0531,1.0521,1.0524,1.0521,1.0519,1.0525,1.0507,1.0511,1.052,1.0534,1.0511,1.0503,1.05,1.0546,1.0546,1.0547,1.0547,0,0,1.0488,1.0499,1.0495,1.0497,1.0502,1.0498,1.049,1.0488,1.0485,1.0486,1.0479,1.0473,1.0482,1.0481,1.0488,1.0481,1.046,1.0492,1.0492,1.0486,1.044,1.0432,1.0428,1.0467,1.0466,1.0465,1.044,0,1.0461,1.0448,1.0459,1.0444,1.044,1.0456,1.0449,1.0451,1.0456,1.0453,1.0458,1.0453,1.0466,1.0465,1.0459,1.0464,1.0451,1.0466,1.046,1.046,1.0459,1.0424,1.0416,1.0391,1.0437,1.0436,1.0436,0,1.0426,1.0427,1.0412,1.0419,1.0418,1.0411,1.0412,1.0408,1.0411,1.0416,1.0415,1.0425,1.0417,1.0432,1.0421,1.0431,1.043,1.0432,1.0431,1.043,1.0446,1.0422,1.0383,1.038,1.0431,1.0431,1.0431,0,1.0395,1.0392,1.0383,1.0384,1.0392,1.0387,1.039,1.0394,1.0393,1.0393,1.0392,1.0391,1.039,1.0389,1.0398,1.0407,1.0386,1.0401,1.0389,1.0389,1.0383,1.0383,1.0344,1.0383,1.0383,1.0383,1.0383,0,1.0362,1.0352,1.0369,1.0363,1.0353,1.0366,1.0355,1.0359,1.0363,1.0358,1.0372,1.0367,1.0379,1.0376,1.0383,1.0373,1.0373,1.0376,1.0377,1.0374,1.0374,1.0372,1.0374,1.0382,1.0382,1.0382,1.0382,0,1.0325,1.0335,1.0327,1.0336,1.0338,1.033,1.0337,1.0332,1.0339,1.0333,1.0332,1.0342,1.0339,1.0348,1.0346,1.0351,1.0337,1.0342,1.0336,1.0337,1.0325,1.0326,1.0283,1.0278,1.032,1.032,1.032,0,1.0303,1.0296,1.0305,1.0304,1.0306,1.0303,1.0303,1.0315,1.0314,1.0318,1.0312,1.0311,1.031,1.0303,1.031,1.0309,1.0313,1.0298,1.0313,1.031,1.0313,1.0313,1.0312,1.0295,1.0294,1.0294,1.0293,0,1.0263,1.0269,1.0268,1.027,1.0269,1.027,1.0272,1.027,1.0284,1.0281,1.0279,1.0278,1.0277,1.0275,1.0275,1.0278,1.0288,1.0289,1.0286,1.0282,1.0279,1.0281,1.0327,1.029,1.029,1.029,1.0291,1.0291,1.0233,1.0228,1.0234,1.0233,1.0236,1.0238,1.0234,1.0241,1.0239,1.024,1.0247,1.0243,1.0248,1.0249,1.0251,1.0248,1.0255,1.025,1.0249,1.0248,1.0246,1.0281,1.0248,1.0248,1.0248,1.0248,1.0248,0,1.0194,1.0199,1.0198,1.0201,1.02,1.0212,1.0215,1.0213,1.021,1.0213,1.0213,1.021,1.0208,1.0216,1.0215,1.0211,1.0216,1.021,1.021,1.0211,1.024,1.0242,1.0207,1.0207,1.0207,1.0207,1.0207,1.0207,1.0174,1.0166,1.0173,1.0167,1.0172,1.0169,1.017,1.0172,1.0175,1.0172,1.0171,1.0176,1.0181,1.0181,1.018,1.0182,1.0181,1.0174,1.0178,1.0205,1.0209,1.0212,1.0215,1.0174,1.0174,1.015,1.0149,1.0149]}]]